K3GM Weather Reports


time (UTC)temp
F
wind
direction
speed
knots
gust
knots
rain 1hr
in
rain 24hr
in
rain mn
in
humidity
%
barometer
mb
20260504174537 72 193 0.9 4.3 0.00 0.00 0.00 30 1012.6
20260504173033 72 315 0.0 2.6 0.00 0.00 0.00 29 1012.7
20260504171544 71 0 0.0 6.1 0.00 0.00 0.00 28 1013.1
20260504081536 44 0 0.0 0.0 0.00 0.00 0.00 80 1015.5
20260504044536 46 0 0.0 0.0 0.00 0.00 0.00 67 1015.1
20260504043046 47 0 0.0 0.0 0.00 0.00 0.00 66 1014.9
20260504041536 47 0 0.0 0.0 0.00 0.00 0.00 64 1014.9
20260504040033 48 0 0.0 0.0 0.00 0.00 0.00 62 1014.8
20260504034531 48 0 0.0 0.0 0.00 0.00 0.00 61 1014.6
20260504033038 49 0 0.0 0.0 0.00 0.00 0.00 60 1014.4
20260504031535 49 0 0.0 0.0 0.00 0.00 0.00 53 1014.3
20260504030037 50 0 0.0 0.0 0.00 0.00 0.00 50 1014.5
20260504024536 50 0 0.0 0.0 0.00 0.00 0.00 54 1014.4
20260504023031 50 0 0.0 0.0 0.00 0.00 0.00 53 1014.5
20260504021535 50 0 0.0 0.0 0.00 0.00 0.00 46 1014.5
20260504020036 51 0 0.0 0.0 0.00 0.00 0.00 53 1014.3
20260504014539 51 0 0.0 0.0 0.00 0.00 0.00 47 1014.2
20260504013049 52 0 0.0 0.0 0.00 0.00 0.00 52 1014.2
20260504011536 52 0 0.0 0.0 0.00 0.00 0.00 51 1014.0
20260504010039 53 0 0.0 0.0 0.00 0.00 0.00 48 1013.9
20260504004537 54 0 0.0 0.0 0.00 0.00 0.00 39 1013.5
20260504003037 55 0 0.0 0.0 0.00 0.00 0.00 43 1013.4
20260504001539 55 0 0.0 0.0 0.00 0.00 0.00 41 1013.2
20260504000037 56 0 0.0 2.6 0.00 0.00 0.00 40 1013.2
20260503234532 57 26 0.0 1.7 0.00 0.00 0.00 38 1013.0
20260503233039 58 0 0.0 5.2 0.00 0.00 0.00 30 1013.0
20260503231537 58 334 0.0 7.0 0.00 0.00 0.00 28 1012.9
20260503230036 59 268 0.9 7.8 0.00 0.00 0.00 28 1012.7
20260503224535 59 0 0.0 7.0 0.00 0.00 0.00 34 1012.6
20260503223031 59 33 0.0 5.2 0.00 0.00 0.00 34 1012.6
20260503221537 59 315 0.9 9.6 0.00 0.00 0.00 33 1012.8
20260503220036 59 327 4.3 10.4 0.00 0.00 0.00 33 1012.7
20260503214534 59 0 0.9 9.6 0.00 0.00 0.00 26 1012.9
20260503213034 59 0 1.7 8.7 0.00 0.00 0.00 26 1012.7
20260503211535 59 0 0.9 12.2 0.00 0.00 0.00 34 1012.6
20260503210033 59 333 0.9 10.4 0.00 0.00 0.00 27 1012.7
20260503204535 59 329 2.6 9.6 0.00 0.00 0.00 26 1012.6
20260503203041 59 0 3.5 11.3 0.00 0.00 0.00 34 1012.9
20260503201533 59 0 1.7 7.8 0.00 0.00 0.00 28 1013.0
20260503200034 58 0 0.9 13.9 0.00 0.00 0.00 30 1013.1
20260503194535 58 332 1.7 11.3 0.00 0.00 0.00 34 1013.1
20260503193040 58 335 0.9 12.2 0.00 0.00 0.00 34 1013.1
20260503191539 58 279 1.7 13.0 0.00 0.00 0.00 27 1013.1
20260503190035 58 268 5.2 13.0 0.00 0.00 0.00 27 1013.3
20260503184532 58 0 4.3 13.0 0.00 0.00 0.00 27 1013.5
20260503183036 58 9 0.9 7.8 0.00 0.00 0.00 30 1013.8
20260503181536 57 324 0.9 10.4 0.00 0.00 0.00 31 1013.6
20260503180045 56 0 0.9 12.2 0.00 0.00 0.00 32 1013.6